Terug naar catalogus

STARLINK-32450

ActiefCommunicatieVLEO
NORAD 61969·PAYLOAD·🇺🇸 United States

Gelanceerd Nov 14, 2024 vanaf Cape Canaveral Space Force Station

Loading…

Volgende Passages (komende 24 uur)

TLE

VersSource: CelesTrak SupGP

Epoch: Sep 14, 2026, 20:43 UTC

1 61969C 24210L   26257.86368056  .00009648  00000+0  34933-3 0  2572
2 61969  43.0026 184.3523 0001420 267.2373 105.6683 15.27584141    19

Volg STARLINK-32450 in realtime met AllMySat

Download on the App Store